Home   Weather   Poole   Past weeks

Flag for United Kingdom Past Weather in Poole, England, United Kingdom — Yesterday and Last 2 Weeks

55 °F

Passing clouds.

Feels Like: 53 °F
Forecast: 44 / 61 °F
Wind: 8 mph from West

Location: Bournemouth Airport

Current Time: Oct 26, 2016 at 8:11:30 PM

Latest Report: Oct 26, 2016 at 7:20 PM

Visibility: N/A

Pressure: 30.42 "Hg

Humidity: 94%

Dew Point: 54 °F

Location of PooleLocation

Past Weather in Poole — Graph


Poole Temperature Yesterday

Maximum temperature yesterday: 63 °F (at 1:20 PM)
Minimum temperature yesterday: 46 °F (at 8:20 PM)
Average temperature yesterday: 53 °F

High & Low Weather Summary for the Past Weeks

High63 °F (Oct 16, 11:50 AM)100% (Oct 14, 5:50 AM)30.39 "Hg (Oct 14, 5:50 AM)
Low32 °F (Oct 22, 6:20 AM)59% (Oct 13, 1:50 PM)29.62 "Hg (Oct 14, 10:20 PM)
Average52 °F84%30.00 "Hg
* Reported Oct 11 6:20 PM — Oct 26 6:50 PM, Poole, Weather by CustomWeather, © 2016

Note: Actual official high and low records may vary slightly from our data, if they occured in-between our weather recording intervals... More about our weather records


Poole Weather History for the Previous 24 Hours

Scroll right to see more
Time TempWeatherWind HumidityBarometerVisibility
6:50 PM
Wed, Oct 26
55 °FPassing clouds.6 mph94%30.39 "HgN/A
6:20 PM57 °FPassing clouds.6 mph88%30.39 "HgN/A
5:20 PM57 °FScattered clouds.7 mph82%30.39 "HgN/A
4:50 PM59 °FScattered clouds.9 mph77%30.39 "HgN/A
4:20 PM59 °FScattered clouds.9 mph82%30.39 "HgN/A
3:50 PM59 °FScattered clouds.10 mph82%30.39 "HgN/A
3:20 PM59 °FScattered clouds.10 mph77%30.36 "HgN/A
2:50 PM61 °FScattered clouds.9 mph77%30.36 "HgN/A
2:20 PM61 °FScattered clouds.9 mph77%30.39 "HgN/A
1:50 PM59 °FScattered clouds.9 mph82%30.39 "HgN/A
1:20 PM61 °FScattered clouds.8 mph77%30.39 "HgN/A
12:50 PM59 °FScattered clouds.10 mph77%30.39 "HgN/A
12:20 PM59 °FPassing clouds.8 mph77%30.39 "HgN/A
11:50 AM57 °FPassing clouds.9 mph88%30.39 "HgN/A
11:20 AM55 °FPassing clouds.6 mph94%30.39 "HgN/A
10:50 AM54 °FScattered clouds.3 mph100%30.39 "HgN/A
10:20 AM50 °FPassing clouds.1 mph100%30.36 "Hg4 mi
9:50 AM50 °FScattered clouds.1 mph100%30.36 "Hg1 mi
9:20 AM48 °FFog.1 mph100%30.36 "Hg0 mi
8:50 AM48 °FFog.1 mph100%30.36 "Hg0 mi
8:20 AM48 °FFog.1 mph100%30.36 "Hg0 mi
7:50 AM48 °FFog.1 mph100%30.33 "Hg0 mi
7:20 AM48 °FFog.1 mph100%30.33 "Hg0 mi
6:50 AM50 °FFog.2 mph100%30.33 "Hg0 mi
6:20 AM48 °FFog.3 mph100%30.33 "Hg0 mi
12:20 AM46 °FFog.No wind100%30.30 "Hg0 mi
11:50 PM
Tue, Oct 25
46 °FFog.No wind100%30.27 "Hg0 mi
11:20 PM46 °FFog.1 mph100%30.27 "Hg0 mi
10:50 PM46 °FFog.1 mph100%30.27 "Hg0 mi
10:20 PM46 °FFog.2 mph93%30.27 "Hg0 mi
9:50 PM46 °FFog.1 mph100%30.27 "Hg1 mi
9:20 PM46 °FDense fog.1 mph100%30.27 "Hg1 mi
8:50 PM46 °FFog.2 mph100%30.27 "Hg1 mi
8:20 PM46 °FLight fog.3 mph100%30.27 "Hg1 mi
Weather by CustomWeather, © 2016

See weather overviewHow to use our weather pages